Regional Weather Roundup
Issued by NWS

Home | Current Version | Previous Version | Graphics & Text | Print | Product List | Glossary Off
Versions: 1 2 3 4 5 6 7 8 9 10 11 12 13 14 15 16 17 18 19 20 21 22 23 24 25 26 27 28 29 30 31 32 33 34 35 36 37 38 39 40 41 42 43 44 45 46 47 48 49 50

000
ASUS43 KDMX 210301
RWRIA

WEATHER ROUNDUP FOR IOWA
NATIONAL WEATHER SERVICE DES MOINES IA
900 PM CST MON FEB 20 2017

NOTE: "FAIR" INDICATES FEW OR NO CLOUDS BELOW 12,000 FEET WITH NO
SIGNIFICANT WEATHER AND/OR OBSTRUCTIONS TO VISIBILITY.

* - THESE STATIONS ARE NOT NWS STATIONS...THUS NOT UNDER NWS
QUALITY CONTROL.  THEY ALSO DO NOT REPORT WEATHER SUCH
AS PRECIPITATION OR FOG.

IAZ001>003-012>014-020>022-031>034-043>046-210400-
   NORTHWEST IOWA

CITY           SKY/WX    TMP DP  RH WIND       PRES   REMARKS
CARROLL *      MOCLDY    46  45  93 W8        29.92R
CHEROKEE *     CLEAR     44  43  95 CALM      29.90S
DENISON *      PTCLDY    46  43  87 W7        29.90S
LE MARS *      CLEAR     39  37  93 CALM      29.91S
SHELDON *      CLEAR     41  41 100 W6        29.87S
SIOUX CITY     CLEAR     45  41  86 S3        29.91S
SPENCER        CLEAR     43  40  89 W8        29.88R
STORM LAKE *   CLEAR     43  41  93 W14       29.90R
$$

IAZ055>058-069>071-079>083-090>094-210400-
   SOUTHWEST IOWA

CITY           SKY/WX    TMP DP  RH WIND       PRES   REMARKS
ATLANTIC *     PTCLDY    50  45  81 NW9G15    29.93R
CLARINDA *     CLOUDY    55  50  82 N8G15       N/A
COUNCIL BLFS * MOCLDY    50  46  87 NW9       29.94R
CRESTON *      PTCLDY    55  55 100 W10       29.91R
HARLAN  *      PTCLDY    45  45 100 NW8       29.96R
LAMONI         MOCLDY    58  54  86 SW10      29.90R
RED OAK *      MOCLDY    52  48  87 CALM      29.94R
SHENANDOAH *   CLOUDY    55  48  76 CALM      29.95R
$$

IAZ047>049-059>061-072>074-084-210400-
   CENTRAL IOWA

CITY           SKY/WX    TMP DP  RH WIND       PRES   REMARKS
AMES           CLOUDY    53  49  86 NW13      29.88R
ANKENY *       MOCLDY    59  57  94 SW9       29.88S
BOONE *        CLOUDY    52  48  87 NW13G18   29.88S
CHARITON *     MOCLDY    55  55 100 SW6       29.87R FOG
DES MOINES     CLOUDY    58  56  93 SW7       29.88R
GRINNELL*      LGT RAIN  56  55  94 SW7       29.88R
KNOXVILLE *    CLOUDY    57  55  94 W7        29.86R
MARSHALLTOWN   LGT RAIN  57  56  96 SW13      29.85R
NEWTON *       CLOUDY    55  55 100 SW7       29.87R FOG
PELLA *        CLOUDY    58  56  96 CALM      29.88R
PERRY *        CLOUDY    52  48  87 NW7       29.89S
$$

IAZ004>006-015-016-023>025-035-036-210400-
   NORTH CENTRAL IOWA

CITY           SKY/WX    TMP DP  RH WIND       PRES   REMARKS
ALGONA *       PTCLDY    46  45  93 W9G17     29.88R
CLARION *      CLOUDY    48  48 100 W12       29.88R
ESTHERVILLE    CLEAR     44  42  93 W16       29.85R
FORT DODGE *   CLOUDY    48  43  81 W7        29.90R
MASON CITY     CLOUDY    49  46  90 W16       29.86R
FOREST CITY *    N/A     46  46 100 W13       29.86R
IOWA FALLS *   CLOUDY    53  51  93 W14G22    29.88R
$$

IAZ007>011-017>019-026>030-037>042-050>054-066-210400-
   NORTHEAST IOWA

CITY           SKY/WX    TMP DP  RH WIND       PRES   REMARKS
CEDAR RAPIDS   CLOUDY    55  55 100 S5        29.86F
CHARLES CITY * CLOUDY    55  55 100 W12       29.84R FOG
CLINTON *      LGT RAIN  58  57  97 SW13      29.90S
DECORAH *      CLOUDY    55  54  94 S10G18    29.80S FOG
DUBUQUE        LGT RAIN  54  54 100 S9        29.88R FOG
MONTICELLO *   CLOUDY    55  54  94 SE3       29.87F
OELWEIN *      CLOUDY    55  55 100 S16       29.83F FOG
WATERLOO       CLOUDY    55  53  93 SW10      29.84R FOG
$$

IAZ064-065-067-068-078-210400-
   EAST CENTRAL IOWA

CITY           SKY/WX    TMP DP  RH WIND       PRES   REMARKS
DAVENPORT      LGT RAIN  59  56  89 SW8       29.90S
IOWA CITY      CLOUDY    55  54  96 S5        29.89S FOG
MUSCATINE *    CLOUDY    59  55  88 S6        29.90R
QUAD CITIES    LGT RAIN  61  56  83 W9        29.88F
$$

IAZ062-063-075>077-085>089-095>099-210400-
   SOUTHEAST IOWA

CITY           SKY/WX    TMP DP  RH WIND       PRES   REMARKS
BURLINGTON     LGT RAIN  60  59  96 S9        29.90R
FAIRFIELD *    CLOUDY    59  55  88 S6        29.88S
KEOKUK *       CLOUDY    61  59  94 S5        29.90S
OTTUMWA        CLOUDY    57  55  93 S6        29.87S
WASHINGTON *     N/A     59  57  94 S8        29.90R
$$

ABBREVIATIONS USED IN REMARKS
   TC - TEMPERATURES IN CELSIUS
  WCI - WIND CHILL INDEX
   HX - HEAT INDEX
  VSB - VISIBILITY
$$




USA.gov is the U.S. government's official web portal to all federal, state and local government web resources and services.